GFSNE_sfc_rhum_000.txt.gz
RH
52 51 47 42 37 34 34 34 37 39 32 31 55 87 90 93 95 96 89 78 93 91 88 87 85 89 86 85 82 77 78 81 82 82 79 72 68 67
43 46 47 44 38 37 35 39 39 41 42 28 28 61 89 96 96 97 96 95 93 93 92 89 87 86 91 88 87 86 86 84 82 80 77 70 68 68
45 47 49 46 46 41 39 38 39 39 45 40 33 43 61 81 94 97 97 97 96 96 93 91 91 93 94 94 94 91 88 84 80 77 74 72 69 67
47 46 45 35 48 48 43 43 40 38 39 48 40 42 61 64 81 94 95 99 98 97 96 94 98 96 96 94 91 88 84 82 80 79 78 74 69 66
51 50 48 47 49 47 45 43 41 34 38 42 44 38 48 68 94 96 98 99 99 98 99 99 97 94 91 89 86 86 86 86 86 84 82 78 74 70
62 65 63 59 62 54 45 47 42 45 44 43 41 40 42 60 92 96 98 96 99 99 99 98 95 91 89 87 85 85 88 88 88 88 88 85 81 73
67 66 66 67 70 70 63 60 53 55 51 47 51 49 49 58 92 92 96 98 97 99 99 100 98 95 93 90 90 90 92 92 92 91 87 83 77 71
76 69 66 70 69 75 75 79 85 82 72 58 51 50 48 48 64 93 95 98 99 99 98 99 99 98 96 94 92 96 96 94 92 89 84 77 73 70
75 73 65 54 67 62 74 78 78 80 81 74 70 50 46 43 48 89 95 88 92 97 90 96 99 99 97 96 96 95 95 94 91 87 80 76 74 72
79 74 74 74 70 66 67 74 73 69 70 61 57 59 44 40 43 72 88 93 94 95 96 93 97 96 98 99 96 96 96 93 89 83 77 77 76 75
76 76 74 78 78 76 75 79 73 78 82 76 72 66 68 85 88 68 99 97 98 95 96 93 94 97 98 99 100 99 98 90 83 78 78 77 71 70
81 80 79 80 82 82 82 87 91 77 70 91 97 85 77 72 93 86 89 96 91 93 91 88 94 90 94 96 99 98 95 86 78 77 73 69 68 53
81 78 80 83 86 90 88 89 82 67 72 74 74 82 80 66 65 95 94 82 86 75 82 70 86 88 74 91 95 96 96 93 77 66 66 65 67 51
92 82 87 87 94 98 97 97 88 81 83 95 83 87 91 83 64 65 90 95 72 71 78 68 78 74 82 92 90 92 91 93 82 66 61 67 70 62
86 85 87 87 90 97 98 98 96 88 93 90 95 77 80 76 78 82 98 97 98 92 83 80 82 84 85 84 86 90 93 87 59 62 64 57 53 47
87 81 91 96 99 100 97 98 97 97 92 85 76 74 71 94 96 87 92 93 93 95 97 99 96 84 90 87 73 90 87 89 83 86 82 61 34 29
93 95 89 86 85 88 97 95 92 93 95 95 99 92 81 91 88 94 85 85 83 91 94 93 94 92 86 85 88 82 86 85 80 80 75 61 41 28
84 89 93 94 86 83 92 95 98 95 90 99 95 86 82 84 91 92 92 85 88 91 88 86 78 78 74 82 72 78 68 58 53 68 67 61 42 36
82 84 90 90 88 84 85 88 89 91 96 91 90 92 93 86 89 90 91 91 93 88 82 80 73 69 77 83 64 67 59 58 73 76 62 58 55 42
69 77 89 89 82 82 85 86 89 90 91 89 92 93 94 90 92 87 88 89 88 86 85 81 78 71 72 75 77 80 57 74 75 72 62 56 49 61
64 78 84 72 80 87 92 92 94 93 93 93 91 89 95 89 91 89 91 93 92 84 83 82 76 76 74 82 89 87 82 71 69 71 64 59 49 42
90 76 73 82 83 78 83 88 93 93 91 86 93 94 95 91 92 93 93 92 82 72 66 62 52 49 62 62 78 84 76 68 60 56 61 69 70 55
91 89 92 82 76 77 73 81 81 84 77 80 86 88 92 92 88 87 86 80 69 64 59 58 52 47 52 56 64 68 80 70 62 58 69 54 54 56

GFSNE_sfc_rhum_003.txt.gz
RH
53 53 48 43 44 43 43 38 40 46 40 35 34 36 63 80 90 95 96 94 99 97 97 95 91 87 87 86 82 78 74 75 78 77 76 79 81 77
44 49 48 44 43 43 43 46 42 43 48 36 32 34 48 73 83 98 97 98 100 99 97 96 96 92 91 92 92 82 78 76 78 79 81 83 82 77
48 49 50 48 45 44 47 50 51 46 48 42 35 35 42 65 75 83 92 97 98 100 99 96 95 96 96 96 95 95 88 79 82 85 86 83 79 72
45 47 46 34 47 47 45 53 52 48 45 49 41 38 42 43 48 65 78 92 97 99 100 98 95 95 98 98 99 96 92 94 93 89 85 81 77 75
46 48 48 49 52 48 47 48 50 41 45 47 44 39 39 39 49 59 74 82 89 87 99 99 98 95 96 99 99 97 97 96 93 88 84 81 79 76
54 56 55 56 57 57 56 58 48 53 52 50 46 45 43 40 44 65 97 92 97 96 99 100 100 98 96 98 99 96 95 92 89 87 89 88 84 80
60 58 63 66 68 68 61 66 69 65 57 55 55 54 51 48 51 64 82 88 97 96 98 99 99 98 98 98 94 95 93 90 89 87 86 85 84 82
76 68 62 66 66 74 76 75 70 74 83 84 69 64 58 52 47 54 75 97 96 97 99 98 99 99 99 96 94 93 90 89 88 88 88 86 84 80
77 77 69 54 68 64 70 77 79 78 77 67 81 80 64 53 50 56 77 87 84 96 92 98 99 99 98 98 96 93 91 91 90 90 89 89 85 84
79 76 77 79 75 73 75 78 71 71 71 62 64 63 66 59 67 64 70 84 97 95 89 96 98 97 99 99 98 96 96 95 96 96 94 92 88 84
75 76 76 81 82 77 90 95 90 87 70 75 82 75 65 65 70 76 96 95 100 98 95 87 95 97 95 99 100 97 96 96 96 95 95 92 88 82
86 80 80 80 87 92 97 94 93 84 72 71 82 92 93 68 70 73 96 92 90 97 92 86 93 89 94 97 98 99 100 100 100 98 98 94 88 72
84 86 89 88 96 90 87 95 91 77 74 71 86 96 88 75 70 71 85 99 94 81 81 76 85 91 88 92 97 98 99 99 99 99 100 97 81 61
92 86 86 96 97 94 89 92 98 98 91 96 90 88 82 94 72 64 71 90 98 79 75 71 82 82 90 96 94 97 98 98 98 97 97 95 77 78
93 91 86 84 85 86 85 88 90 97 96 96 96 80 72 66 68 66 99 99 98 94 84 74 73 79 81 86 91 95 95 96 95 96 97 95 95 86
86 82 85 91 96 96 98 98 96 97 95 92 83 94 72 72 77 70 96 97 94 96 100 100 81 82 94 88 82 94 91 92 95 95 95 96 92 85
94 96 87 81 86 84 93 99 95 96 96 93 84 78 99 91 92 97 90 89 93 90 89 94 99 98 86 86 93 91 92 92 94 95 95 93 92 92
89 90 89 89 88 87 94 94 90 86 84 87 98 93 95 97 93 97 93 91 90 90 88 92 91 88 81 92 76 91 92 90 92 94 93 93 90 53
86 86 90 92 91 85 88 85 95 98 99 96 99 98 96 88 85 90 94 92 94 87 93 94 86 80 80 86 88 85 87 88 93 93 92 88 75 53
81 88 92 89 84 85 86 90 91 93 94 93 95 99 98 90 90 87 92 91 93 91 93 89 80 82 82 83 87 91 76 85 91 90 83 70 73 63
85 84 87 85 86 85 89 92 95 95 95 94 93 92 98 92 93 91 90 91 90 86 86 87 91 95 84 82 92 93 93 80 75 80 74 71 61 53
91 91 90 88 91 87 94 93 92 94 94 93 96 93 93 92 90 89 89 88 85 90 83 77 76 71 74 71 86 91 91 85 65 69 72 74 73 65
94 93 94 94 93 93 90 88 92 96 95 93 88 89 91 93 92 92 93 87 77 81 84 90 86 73 65 68 78 80 86 78 66 60 72 58 63 68

GFSNE_sfc_rhum_006.txt.gz
RH
60 60 58 56 60 55 50 48 52 63 58 51 55 48 57 89 90 95 96 94 97 99 99 98 95 96 90 87 86 83 82 81 80 80 79 78 75 75
54 58 57 55 54 54 51 52 54 60 65 50 49 54 52 54 84 92 96 95 95 98 100 99 98 97 94 90 88 86 84 82 81 81 80 79 76 77
54 55 54 53 54 53 54 54 55 56 65 58 54 53 58 59 63 93 96 98 97 98 100 99 99 99 100 94 92 90 87 84 82 82 82 79 78 79
50 52 52 41 52 53 54 55 56 53 62 66 60 59 56 54 48 64 82 90 96 92 100 100 99 99 100 100 98 95 92 88 84 83 83 80 81 84
51 52 52 53 56 56 56 57 57 49 57 65 64 58 55 63 62 59 61 86 94 89 92 100 99 99 99 100 99 99 97 94 93 91 87 86 86 84
57 61 62 64 67 66 63 64 59 66 69 75 68 63 60 55 65 71 70 95 96 87 89 99 98 99 99 99 100 99 98 96 94 96 98 95 91 84
64 62 64 65 66 69 67 72 70 70 73 83 82 76 69 66 70 73 77 83 98 95 93 92 99 98 97 99 98 99 99 97 97 97 97 94 93 89
74 71 68 67 68 70 72 73 73 78 78 88 89 97 89 80 70 79 83 94 90 99 99 97 99 99 99 99 98 100 99 98 97 97 96 94 92 90
78 78 73 61 70 68 72 75 77 77 78 74 74 71 78 80 84 89 92 94 89 99 98 99 99 100 99 97 99 100 99 99 97 95 92 90 89 88
84 81 81 81 78 77 77 84 87 82 75 72 76 70 65 61 68 74 92 96 98 99 95 99 98 99 99 99 96 97 99 98 96 93 91 90 89 87
85 82 81 81 78 78 88 97 94 87 74 81 76 74 71 70 66 72 90 98 99 99 99 94 98 97 98 98 99 96 98 99 96 94 92 91 89 88
84 89 86 94 92 89 91 96 96 90 86 79 76 79 80 81 85 86 76 84 98 99 99 97 96 96 97 99 98 99 99 99 97 95 94 93 92 93
93 88 82 78 81 92 97 94 93 82 81 81 80 79 77 89 88 83 77 75 91 98 96 94 93 96 96 99 99 99 99 99 99 99 96 95 93 91
95 93 91 91 90 94 96 94 95 98 98 97 97 91 91 86 82 83 78 75 83 96 91 86 96 92 93 98 98 99 99 99 98 98 98 99 100 98
94 94 94 90 87 93 92 91 88 94 95 97 95 95 85 82 98 87 98 93 99 100 96 88 92 88 84 92 94 97 97 99 98 97 98 97 95 94
95 95 93 97 97 97 97 98 97 97 94 93 96 88 96 95 94 94 99 99 99 99 100 99 88 89 98 87 83 96 94 97 98 97 97 98 97 96
97 88 91 91 89 88 91 99 98 99 97 98 97 93 96 98 96 99 97 96 95 96 98 99 98 98 96 91 96 94 96 95 94 96 94 95 96 96
91 95 94 92 96 95 96 98 99 98 97 97 98 99 99 99 98 98 96 95 95 96 96 94 95 94 94 96 87 94 95 94 96 96 95 94 95 96
87 89 92 96 92 93 95 97 97 99 99 100 100 100 97 98 98 96 98 98 97 95 94 93 96 86 92 94 96 77 91 94 96 96 95 95 94 94
93 93 95 90 96 91 94 96 97 97 97 98 99 98 95 95 97 98 96 96 96 96 96 96 97 94 92 94 96 98 92 92 90 95 96 96 95 85
91 90 95 95 93 94 95 94 95 95 97 98 98 98 99 98 96 97 98 95 96 95 95 96 98 96 87 85 95 96 96 93 89 93 96 95 89 84
94 93 93 95 96 95 93 93 93 95 95 94 95 95 97 97 97 97 94 95 95 95 96 96 96 83 88 82 91 96 96 95 94 92 86 82 91 81
94 94 94 94 95 96 95 95 94 94 94 95 96 96 95 95 95 94 94 91 90 92 94 96 97 95 84 83 88 94 95 95 94 92 93 75 75 76

GFSNE_sfc_rhum_009.txt.gz
RH
70 72 70 64 66 60 59 58 65 72 64 54 52 48 46 75 88 91 96 97 96 97 100 98 97 97 97 96 98 90 92 87 82 82 82 81 80 79
64 74 68 64 66 70 66 66 67 72 75 56 54 60 59 62 71 80 88 94 96 97 98 99 99 99 98 98 97 98 90 89 84 83 83 83 83 79
67 65 65 64 65 64 64 61 61 61 68 60 53 53 64 63 63 75 84 93 96 99 100 100 100 100 100 99 99 99 99 91 87 84 84 83 84 81
59 68 62 48 59 60 62 62 61 60 65 67 58 59 67 68 67 68 62 85 95 96 96 97 98 100 98 100 100 100 99 99 95 88 86 85 85 81
58 60 58 59 60 62 65 66 65 57 69 77 77 75 76 77 70 73 75 80 95 90 93 99 98 98 100 99 98 98 100 100 99 94 90 88 86 82
71 75 75 76 77 75 70 72 68 73 72 74 72 68 71 71 81 74 80 82 82 96 95 96 100 99 97 97 98 99 100 99 100 99 95 92 89 85
79 74 71 71 67 70 65 68 69 73 74 75 76 72 71 78 82 84 86 87 87 92 96 96 96 96 94 92 96 97 98 99 99 100 98 96 92 87
82 74 71 69 71 74 74 75 73 77 79 77 78 80 78 77 92 96 99 94 96 99 100 98 99 98 96 91 87 96 94 96 97 100 99 98 95 93
82 83 79 67 75 73 75 76 76 77 77 79 85 79 76 70 72 92 93 99 98 95 99 98 100 99 98 95 93 96 97 96 97 98 100 99 96 97
84 84 86 86 83 82 81 82 80 76 77 71 79 80 76 72 69 67 77 93 98 98 98 99 100 99 99 99 92 95 97 97 99 99 99 99 98 97
85 86 83 94 84 82 85 96 93 86 75 80 80 78 78 78 75 80 84 84 86 88 99 99 97 98 100 99 98 94 98 98 99 99 98 99 98 97
85 82 80 82 83 88 94 97 96 89 84 88 84 81 80 83 88 82 93 94 87 96 98 98 96 94 98 99 99 98 99 98 99 99 98 98 97 96
90 90 84 85 87 89 92 97 94 87 86 87 87 86 86 83 82 84 95 98 97 88 99 96 96 96 98 99 99 98 99 99 100 100 99 97 97 92
95 92 91 92 92 91 96 95 94 96 96 97 96 93 90 90 82 86 85 86 88 85 93 93 97 97 97 100 97 99 98 99 98 98 99 99 98 93
95 96 94 93 92 96 92 94 95 97 95 95 92 95 88 82 82 87 95 98 91 83 84 95 93 94 97 98 98 100 98 98 99 97 98 98 98 98
94 95 88 87 93 92 92 91 97 98 97 94 92 91 94 93 97 94 98 98 99 98 99 98 96 96 98 96 93 97 97 98 99 97 96 97 97 97
93 87 91 91 90 92 91 91 99 99 99 98 98 97 98 95 98 99 99 99 98 98 98 98 99 98 98 97 98 97 97 97 98 97 95 96 97 97
90 97 94 95 96 94 95 94 97 99 99 99 99 99 99 98 97 98 98 98 96 98 98 95 96 96 96 93 93 96 98 97 97 97 97 96 96 97
90 95 96 95 95 95 95 95 97 97 99 99 100 98 98 99 98 98 98 98 98 98 96 96 95 96 96 98 99 96 97 96 97 97 97 97 96 96
92 94 96 96 94 94 94 95 95 96 96 96 98 98 98 98 99 98 98 99 97 97 97 97 97 98 96 94 96 97 95 96 96 97 96 96 97 96
90 92 95 94 95 94 95 95 95 96 96 96 97 97 98 98 99 98 99 99 99 97 96 97 98 94 93 95 96 96 96 96 96 96 96 96 95 93
93 92 92 93 94 95 95 95 94 94 94 95 96 96 97 96 97 98 98 98 97 98 98 97 96 89 93 92 94 96 95 95 94 94 94 92 95 95
94 94 94 94 93 93 93 95 95 95 95 96 96 95 96 96 96 95 95 95 95 95 96 96 96 94 91 88 90 96 95 95 94 93 95 93 84 92